Location: Gwatt
(46.7204°N, 7.6223°E)
Time: 07:57:42
(UTC+00:00)

Vanguard 3 - Pass Details

Date: 23 January 2021
Orbit: 508 x 3261 km, 33.3° (Epoch: 24 February)

Event Time Altitude Azimuth Distance (km) Brightness Sun altitude
Exits shadow 03:20:25 27° 162° (SSE) 2,403 9.5 -37.9°
Maximum altitude 03:21:19 27° 152° (SSE) 2,472 9.6 -37.8°
Drops below altitude 10° 03:30:25 10° 102° (ESE) 4,561 11.6 -36.3°
Sets 03:35:43 0° 93° (E) 6,067 12.6 -35.4°
